Location: Newark
(25.0000°N, 73.5000°E)
Time: 05:16:34
(UTC+00:00)

Altair - Pass Details

Date: 03 March 2021
Orbit: 1501 x 1683 km, 47.2° (Epoch: 12 April)

Event Time Altitude Azimuth Distance (km) Brightness Sun altitude
Rises 17:04:45 0° 308° (NW) 4,679 10.6 -53.2°
Reaches altitude 10° 17:09:09 10° 326° (NW) 3,725 9.8 -54.1°
Enters shadow 17:12:09 16° 344° (NNW) 3,293 9.4 -54.7°
Maximum altitude 17:15:18 19° 7° (N) 3,140 - -55.4°
Drops below altitude 10° 17:21:35 10° 49° (NE) 3,819 - -56.6°
Sets 17:26:11 0° 66° (ENE) 4,839 - -57.5°
